User: anonymous   Login
Location: Unspecified
(0.0000°N, 0.0000°E)
Time: 04:41:28
(UTC+00:00)
Language:

Kosmos-1553 - Orbit

View from above orbital plane
View from above orbital plane
View from above satellite
View from above satellite

Ground track
Ground track

The orbit data is extracted from the following two-line orbital elements,

1 14973U 84046A   18322.56709354  .00000054  00000-0  39637-4 0  9992
2 14973  82.9335 145.7816 0033472  78.6302 339.6364 13.75328125731533
Epoch (UTC): 18 November 2018 13:36:36
Eccentricity: 0.0033472
inclination: 82.9335°
perigee height: 956 km
apogee height: 1005 km
right ascension of ascending node: 145.7816°
argument of perigee: 78.6302°
revolutions per day: 13.75328125
mean anomaly at epoch: 339.6364°
orbit number at epoch: 73153

The dashed part of the orbit path shows where the satellite is in the earth's shadow,  

DLR